www.pogodaiklimat.ru

Погода и климат >> Архив погоды >> Дания >> Арслев


ПОГОДА в Арслеве

  • Прогноз погоды в Арслеве
  • Монитор погоды в Арслеве

АРХИВ ПОГОДЫ в Арслеве

Время (UTC), дата Ветер
(напр.,м/с)
 
Видим.   Явления Облачность Т
(С)
Тd
(С)
f
(%)
Тe
(С)
Тes
(С)
Комфортность P
(гПа)
Po
(гПа)
Тmin
(С)
Tmax
(С)
R
(мм)
R24
(мм)
S
(см)
22 10.06 СВ 4 н/о н/о +14.3 +11.6 84 +13 +13 1014.5 1008.4
23 10.06 СВ 3 н/о н/о +14.3 +12.2 87 +13 +13 1014.6 1008.5
00 11.06 СВ 5 н/о н/о +14.8 +11.3 80 +13 +13 1013.8 1007.7
01 11.06 СВ 5 н/о н/о +14.7 +10.9 78 +13 +13 1012.9 1006.8
02 11.06 СВ 3 н/о н/о +14.6 +11.0 79 +14 +14 1012.9 1006.8
03 11.06 СВ 3 н/о н/о +13.6 +11.6 88 +13 +13 1012.6 1006.5 0.4
04 11.06 СВ 3 н/о н/о +13.4 +11.9 91 +12 +12 1012.4 1006.3 0.4
05 11.06 СВ 3 н/о н/о +13.7 +12.3 91 +13 +13 1012.2 1006.1
06 11.06 СВ 4 н/о н/о +14.3 +12.7 90 +13 +13 1011.7 1005.6 +13.3 +15.8 0.6
07 11.06 СВ 5 н/о н/о +15.6 +13.2 86 +14 +14 1011.2 1005.1
08 11.06 СВ 5 н/о н/о +16.3 +13.9 86 +15 +15 1011.4 1005.3
09 11.06 СВ 4 н/о н/о +16.4 +14.3 87 +16 +16 1011.4 1005.3
10 11.06 В 4 н/о н/о +17.8 +15.3 85 +18 +18 1011.3 1005.2
11 11.06 В 4 н/о н/о +17.9 +15.4 85 +18 +18 1011.0 1004.9
12 11.06 В 3 н/о н/о +18.0 +15.8 87 +18 +18 1011.1 1005.1
13 11.06 ЮВ 3 н/о н/о +19.8 +16.5 81 +22 +22 комфорт 1010.9 1004.9
14 11.06 ЮВ 4 н/о н/о +18.3 +16.2 88 +19 +19 1011.2 1005.2
15 11.06 ЮВ 3 н/о н/о +18.4 +16.8 90 +19 +19 1011.6 1005.5
16 11.06 Ю 3 н/о н/о +17.6 +16.7 94 +18 +18 1011.8 1005.7
17 11.06 Ю 3 н/о н/о +17.6 +15.7 89 +18 +18 1012.3 1006.3
18 11.06 Ю 2 н/о н/о +16.7 +15.3 91 +17 +17 1012.6 1006.6 +14.3 +19.9
19 11.06 ЮЗ 1 н/о н/о +16.9 +15.4 91 +18 +18 1013.0 1007.0
20 11.06 ЮЗ 1 н/о н/о +16.1 +15.1 94 +17 +17 1013.7 1007.7
21 11.06 В 1 н/о н/о +15.2 +14.6 96 +16 +16 1013.7 1007.6
22 11.06 СВ 2 н/о н/о +15.1 +14.6 97 +15 +15 1013.1 1007.0
23 11.06 ЮВ 2 н/о н/о +15.7 +15.2 97 +16 +16 1014.0 1007.9
00 12.06 В 2 н/о н/о +15.3 +14.8 97 +15 +15 1013.7 1007.6
01 12.06 В 2 н/о н/о +15.2 +14.8 97 +15 +15 1014.0 1007.9
02 12.06 ЮВ 2 н/о н/о +15.1 +14.7 97 +15 +15 1014.0 1007.9
03 12.06 В 3 н/о н/о +15.0 +14.5 97 +14 +14 1013.2 1007.1 6
04 12.06 СВ 3 н/о н/о +14.9 +14.5 97 +14 +14 1010.8 1004.7 2
05 12.06 СВ 4 н/о н/о +15.2 +14.9 98 +14 +14 1010.2 1004.1 0.3
06 12.06 СВ 5 н/о н/о +15.7 +15.3 97 +14 +14 1010.3 1004.2 +14.7 +17.0 3
07 12.06 В 4 н/о н/о +15.7 +15.2 97 +15 +15 1012.1 1006.0
08 12.06 В 3 н/о н/о +16.6 +15.5 93 +16 +16 1011.5 1005.4
09 12.06 ЮВ 4 н/о н/о +17.4 +15.2 87 +17 +17 1011.5 1005.5
10 12.06 ЮВ 4 н/о н/о +17.0 +15.0 88 +16 +16 1011.5 1005.4
11 12.06 ЮВ 4 н/о н/о +16.7 +14.8 89 +16 +16 1011.4 1005.4
12 12.06 В 6
{8}
н/о н/о +17.1 +15.0 87 +16 +16 1010.6 1004.6
13 12.06 В 4 н/о н/о +17.2 +15.2 88 +17 +17 1010.1 1004.1
14 12.06 В 4 н/о н/о +17.9 +15.6 86 +18 +18 1009.6 1003.6
15 12.06 В 4 н/о н/о +17.5 +15.7 89 +17 +17 1008.8 1002.8
16 12.06 СВ 3 н/о н/о +17.1 +15.8 92 +17 +17 1007.8 1001.8
17 12.06 Ю 3 н/о н/о +17.3 +15.9 91 +17 +17 1008.5 1002.5
18 12.06 Ю 4 н/о н/о +15.9 +15.3 96 +15 +15 1009.3 1003.2 +15.5 +18.0 8
19 12.06 ЮВ 2 н/о н/о +15.4 +14.9 97 +15 +15 1007.8 1001.8 0.8
20 12.06 ЮВ 2 н/о н/о +15.1 +14.6 97 +15 +15 1007.6 1001.6 0.2
21 12.06 Ю 4 н/о н/о +15.1 +14.7 97 +14 +14 1008.6 1002.5 1
22 12.06 Ю 3 н/о н/о +15.0 +14.6 97 +14 +14 1008.8 1002.7
23 12.06 ЮЗ 3 н/о н/о +15.4 +15.0 97 +15 +15 1009.0 1003.0
00 13.06 ЮЗ 5 н/о н/о +15.1 +14.5 96 +14 +14 1009.1 1003.0
01 13.06 ЮЗ 3 н/о н/о +13.7 +12.7 94 +13 +13 1009.2 1003.1
02 13.06 Ю 3 н/о н/о +13.1 +12.3 95 +12 +12 1009.8 1003.7
03 13.06 Ю 3 н/о н/о +13.2 +12.5 96 +12 +12 1010.2 1004.1
04 13.06 ЮЗ 3 н/о н/о +13.3 +12.4 94 +12 +12 1010.9 1004.7
05 13.06 Ю 2 н/о н/о +13.5 +12.4 93 +13 +13 1011.5 1005.4
06 13.06 Ю 3 н/о н/о +14.7 +12.7 88 +14 +14 1012.1 1006.0 +12.9 +16.0
07 13.06 ЮЗ 3 н/о н/о +16.4 +12.7 79 +16 +16 1011.9 1005.8
08 13.06 Ю 4 н/о н/о +17.4 +12.9 75 +17 +17 1011.7 1005.7
09 13.06 Ю 4 н/о н/о +18.8 +13.2 70 +20 +20 1012.2 1006.2
10 13.06 Ю 4 н/о н/о +19.5 +11.5 60 +21 +21 комфорт 1012.3 1006.3
11 13.06 Ю 6 н/о н/о +20.0 +12.8 63 +22 +22 комфорт 1012.5 1006.5
12 13.06 Ю 7 н/о н/о +19.8 +11.4 58 +21 +21 комфорт 1012.6 1006.6
13 13.06 Ю 7 н/о н/о +20.5 +11.2 55 +22 +22 комфорт 1012.7 1006.7
14 13.06 Ю 5 н/о н/о +21.3 +11.0 52 +23 +23 комфорт 1012.7 1006.7
15 13.06 Ю 5 н/о н/о +20.1 +10.4 54 +21 +21 комфорт 1012.9 1006.9
16 13.06 З 4 н/о н/о +20.0 +12.2 61 +22 +22 комфорт 1013.1 1007.2
17 13.06 З 2 н/о н/о +20.2 +11.7 58 +23 +23 комфорт 1013.3 1007.3
18 13.06 СЗ 1 н/о н/о +20.3 +11.2 56 +23 +23 комфорт 1013.4 1007.4 +14.8 +21.5
19 13.06 ЮВ 3 н/о н/о +17.3 +12.9 75 +17 +17 1013.8 1007.8
20 13.06 ЮВ 2 н/о н/о +15.6 +12.4 81 +16 +16 1014.4 1008.3
21 13.06 ЮВ 3 н/о н/о +15.3 +11.6 79 +15 +15 1014.3 1008.2
22 13.06 ЮВ 2 н/о н/о +15.1 +11.6 80 +15 +15 1014.1 1008.0
23 13.06 ЮВ 3 н/о н/о +15.2 +12.8 86 +15 +15 1014.5 1008.4
00 14.06 ЮВ 1
{13}
н/о н/о +13.5 +11.9 90 +14 +14 1015.5 1009.4 4
01 14.06 В 2 н/о н/о +12.8 +11.9 94 +12 +12 1015.4 1009.2
02 14.06 ЮВ 2 н/о н/о +13.2 +11.7 91 +13 +13 1015.6 1009.4
03 14.06 Ю 2 н/о н/о +13.6 +12.5 93 +13 +13 1016.0 1009.8
04 14.06 Ю 2 н/о н/о +14.0 +12.9 93 +14 +14 1016.1 1009.9
05 14.06 Ю 2 н/о н/о +15.6 +13.8 89 +15 +15 1016.4 1010.3
06 14.06 Ю 3 н/о н/о +17.2 +13.7 80 +17 +17 1016.5 1010.4 +12.6 +20.5
07 14.06 Ю 2 н/о н/о +17.1 +14.2 83 +17 +17 1017.2 1011.1
08 14.06 Ю 4 н/о н/о +19.8 +12.9 64 +22 +22 комфорт 1017.5 1011.5
09 14.06 Ю 5 н/о н/о +20.4 +11.6 57 +22 +22 комфорт 1017.7 1011.7
10 14.06 Ю 5 н/о н/о +21.1 +11.8 55 +23 +23 комфорт 1017.8 1011.8
11 14.06 Ю 4 н/о н/о +22.2 +10.8 48 +24 +24 комфорт 1017.6 1011.6
12 14.06 ЮВ 5
{9}
н/о н/о +23.0 +10.9 46 +25 +25 комфорт 1017.3 1011.3
13 14.06 ЮВ 5 н/о н/о +21.0 +10.5 51 +23 +23 комфорт 1017.4 1011.4
14 14.06 В 3 н/о н/о +21.3 +12.3 56 +23 +23 комфорт 1016.8 1010.8
15 14.06 В 4 н/о н/о +20.6 +14.6 68 +23 +23 комфорт 1015.6 1009.6
16 14.06 В 3 н/о н/о +17.7 +15.3 86 +18 +18 1016.9 1010.8 3
17 14.06 СВ 2 н/о н/о +18.5 +16.2 86 +20 +20 1017.4 1011.4 0.5
18 14.06 В 5 н/о н/о +17.5 +15.8 90 +17 +17 1016.7 1010.6 +16.6 +23.4 7
19 14.06 В 2 н/о н/о +17.0 +15.8 93 +17 +17 1017.1 1011.0
20 14.06 В 4 н/о н/о +15.9 +14.7 93 +15 +15 1017.1 1011.0
21 14.06 В 5 н/о н/о +15.9 +13.9 88 +15 +15 1017.1 1011.0
22 14.06 В 4 н/о н/о +15.3 +13.7 90 +14 +14 1016.8 1010.7
23 14.06 В 4 н/о н/о +15.4 +13.5 88 +14 +14 1016.6 1010.5
00 15.06 В 4 н/о н/о +15.7 +13.4 86 +15 +15 1016.1 1010.0
01 15.06 В 3 н/о н/о +15.6 +13.3 86 +15 +15 1015.4 1009.3
02 15.06 В 2 н/о н/о +14.7 +12.8 88 +14 +14 1014.7 1008.6
03 15.06 В 3 н/о н/о +14.5 +12.9 90 +14 +14 1014.2 1008.0
04 15.06 В 3 н/о н/о +14.9 +13.3 90 +14 +14 1013.5 1007.4
05 15.06 В 2 н/о н/о +16.3 +14.4 89 +17 +17 1013.3 1007.2
06 15.06 В 3 н/о н/о +17.0 +15.1 89 +17 +17 1012.6 1006.6 +14.4 +17.7
07 15.06 ЮВ 3 н/о н/о +16.7 +15.7 94 +16 +16 1013.8 1007.7 4
08 15.06 В 3 н/о н/о +16.4 +15.7 96 +16 +16 1012.8 1006.8 3
09 15.06 В 5 н/о н/о +17.1 +16.1 94 +16 +16 1011.9 1005.8 7
10 15.06 В 6 н/о н/о +16.8 +15.3 91 +16 +16 1009.7 1003.6 1
11 15.06 В 9 н/о н/о +17.2 +15.0 87 +16 +16 1008.9 1002.9 0.8
12 15.06 ЮВ 2
{15}
н/о н/о +17.8 +13.1 74 +19 +19 1011.4 1005.3 2
13 15.06 В 7 н/о н/о +16.4 +12.4 77 +15 +15 1011.1 1005.0 0.1
14 15.06 В 7 н/о н/о +18.2 +12.9 71 +18 +18 1009.6 1003.6 0.5
15 15.06 В 6
{14}
н/о н/о +18.1 +10.9 63 +18 +18 1010.4 1004.4 0.6
16 15.06 ЮВ 5 н/о н/о +14.5 +12.8 90 +13 +13 1011.6 1005.5 6
17 15.06 ЮВ 3 н/о н/о +15.3 +12.7 84 +15 +15 1011.8 1005.7 3
18 15.06 Ю 2
{14}
н/о н/о +15.5 +13.7 89 +15 +15 1011.3 1005.2 +14.0 +18.5 10
19 15.06 Ю 3 н/о н/о +15.3 +14.3 94 +15 +15 1011.1 1005.0
20 15.06 Ю 3 н/о н/о +15.6 +14.6 94 +15 +15 1011.8 1005.7
21 15.06 Ю 2 н/о н/о +15.9 +15.1 95 +16 +16 1012.9 1006.8
22 15.06 ЮЗ 6 н/о н/о +15.9 +15.0 94 +15 +15 1013.1 1007.0
23 15.06 З 5 н/о н/о +14.7 +13.9 95 +13 +13 1013.8 1007.7
00 16.06 З 5 н/о н/о +14.1 +13.0 93 +12 +12 1014.1 1008.0
01 16.06 З 4 н/о н/о +13.9 +12.6 92 +12 +12 1014.6 1008.5
02 16.06 З 5 н/о н/о +13.1 +11.8 92 +11 +11 1015.0 1008.9
03 16.06 З 3 н/о н/о +13.1 +11.9 92 +12 +12 1015.3 1009.2
04 16.06 З 4 н/о н/о +12.9 +11.4 91 +11 +11 1016.0 1009.8
05 16.06 З 4 н/о н/о +13.5 +11.6 88 +12 +12 1016.6 1010.5
06 16.06 З 4 н/о н/о +14.6 +11.3 81 +13 +13 1017.1 1011.0 +12.7 +16.2
07 16.06 З 5 н/о н/о +15.8 +11.6 76 +15 +15 1017.6 1011.5
08 16.06 З 5 н/о н/о +16.7 +11.3 70 +16 +16 1017.9 1011.8
09 16.06 З 5 н/о н/о +17.6 +11.4 67 +17 +17 1018.0 1012.0
10 16.06 З 5 н/о н/о +18.3 +12.0 67 +18 +18 1018.8 1012.8
11 16.06 З 6 н/о н/о +18.6 +12.6 68 +19 +19 1019.0 1013.0
12 16.06 З 5 н/о н/о +18.9 +12.2 65 +19 +19 1019.3 1013.2
13 16.06 З 4 н/о н/о +19.1 +12.3 65 +20 +20 1019.7 1013.6
14 16.06 З 4 н/о н/о +18.3 +12.1 67 +19 +19 1020.0 1013.9
15 16.06 ЮЗ 3 н/о н/о +19.3 +12.5 65 +21 +21 комфорт 1019.9 1013.9
16 16.06 ЮЗ 4 н/о н/о +19.9 +12.0 60 +22 +22 комфорт 1019.5 1013.5
17 16.06 ЮЗ 3 н/о н/о +19.0 +12.6 66 +20 +20 1019.8 1013.7
18 16.06 ЮЗ 3 н/о н/о +18.4 +12.8 70 +19 +19 1019.9 1013.8 +14.6 +20.3
19 16.06 З 2 н/о н/о +17.4 +12.8 74 +18 +18 1020.0 1013.9
20 16.06 ЮЗ 2 н/о н/о +15.7 +12.8 83 +16 +16 1020.3 1014.1
21 16.06 Ю 2 н/о н/о +14.6 +12.8 89 +14 +14 1020.5 1014.3
22 16.06 Ю 3 н/о н/о +14.0 +12.7 92 +13 +13 1020.7 1014.5
23 16.06 ЮЗ 1 н/о н/о +13.0 +12.1 94 +13 +13 1020.9 1014.8
00 17.06 ЮЗ 1 н/о н/о +12.6 +11.9 95 +12 +12 1020.9 1014.7
01 17.06 Ю 1 н/о н/о +12.0 +11.3 95 +12 +12 1020.8 1014.6
02 17.06 Ю 2 н/о н/о +11.9 +11.1 95 +11 +11 1021.1 1014.9
03 17.06 Ю 2 н/о н/о +11.6 +10.9 95 +11 +11 1021.2 1015.0
04 17.06 Ю 3 н/о н/о +12.6 +11.1 91 +11 +11 1021.2 1015.0
05 17.06 Ю 2 н/о н/о +14.9 +12.4 85 +15 +15 1021.0 1014.9
06 17.06 Ю 3 н/о н/о +16.0 +13.2 83 +16 +16 1021.3 1015.1 +11.6 +18.5
07 17.06 Ю 4 н/о н/о +17.8 +13.3 75 +18 +18 1021.5 1015.4
08 17.06 ЮЗ 5 н/о н/о +18.5 +13.3 72 +19 +19 1021.6 1015.5
09 17.06 ЮЗ 6 н/о н/о +18.1 +12.9 72 +18 +18 1021.6 1015.6
10 17.06 ЮЗ 5 н/о н/о +20.4 +14.2 68 +23 +23 комфорт 1021.5 1015.4
11 17.06 ЮЗ 5 н/о н/о +20.3 +13.1 63 +22 +22 комфорт 1021.5 1015.5
12 17.06 ЮЗ 5 н/о н/о +20.8 +13.5 63 +23 +23 комфорт 1021.4 1015.3
13 17.06 З 5 н/о н/о +21.1 +13.6 62 +24 +24 комфорт 1021.3 1015.3
14 17.06 З 4 н/о н/о +21.2 +13.5 61 +24 +24 комфорт 1021.3 1015.3
15 17.06 ЮЗ 3 н/о н/о +21.1 +13.1 60 +23 +23 комфорт 1021.1 1015.0
17 17.06 ЮЗ 2 н/о н/о +21.9 +13.0 57 +25 +25 комфорт 1020.4 1014.4
18 17.06 Ю 2 н/о н/о +20.8 +13.8 64 +24 +24 комфорт 1020.3 1014.3 +15.8 +22.3
19 17.06 Ю 2 н/о н/о +19.5 +14.1 71 +22 +22 комфорт 1020.1 1014.1
20 17.06 ЮВ 2 н/о н/о +17.5 +13.7 78 +18 +18 1020.2 1014.1

 

Местоположение метеостанции Арслев (Дания): широта 55.31 долгота 10.44 высота над уровнем моря 51 м.

В архиве по умолчанию представлена погода в Арслеве за последнюю неделю. Архивные данные за месяц целиком и за предыдущие месяцы, начиная с января 2011 года, Вы можете получить, выбрав интересующий диапазон дат из раскрывающегося списка и нажав кнопку "Ввод!".


*Определитесь, кто Вы:
робот инопланетянин человек

Внимание! Время в таблицах - всемирное. Для получения местного времени необходимо прибавить поправку, которая равна 1 ч.

Смотрите также архив погоды в соседних городах и на ближайших метеорологических станциях:

Погода в Оденсе (Дания) (20 км)
Погода в Тосинге (Дания) (33 км)
Погода в Торае (Дания) (36 км)
Погода в Омо (Дания) (46 км)
Погода на Мысе Roesnaes (Дания) (56 км)
Погода в Тысофте (Дания) (57 км)
Погода на Мысе Kegnaes (Дания) (59 км)
Погода в Флаккебэрге (Дания) (60 км)
Погода в Ланго (Дания) (65 км)
Погода в Вамдрупе (Дания) (71 км)

Пояснения к столбцам:

Ветер - указаны скорость ветра в м/с - средняя за 10 мин, порывы в срок и между сроками (в фигурных скобках) и направление, откуда дует ветер: С - северный, СВ - северо-восточный, В - восточный, ЮВ - юго-восточный, Ю - южный, ЮЗ - юго-западный, З - западный, СЗ - северо-западный.
Видимость - горизонтальная дальность видимости в метрах или километрах. При видимости от 1 до 10 км при отсутствии осадков обычно наблюдается дымка, при ухудшении видимости до 1 км и менее - туман. В сухую погоду видимость может ухудшаться дымом, пылью или мглою.
Явления - указаны атмосферные явления, наблюдавшиеся в срок или в последний час перед сроком; фигурными скобками обозначены явления, наблюдавшиеся между сроками (за 1-3 часа до срока); квадратными скобками обозначены град или гололедные отложения с указанием их диаметра в мм.
Облачность - указаны через наклонную черту общая и нижняя облачность в баллах и высота нижней границы облаков в метрах; квадратными скобками обозначены формы облаков: Ci - перистые, Cs - перисто-слоистые, Cc - перисто-кучевые, Ac - высококучевые, As - высокослоистые, Sc - слоисто-кучевые, Ns - слоисто-дождевые, Cu - кучевые, Cb - кучево-дождевые. Подробнее классификацию облаков см. в Атласе облаков (PDF).
T - Температура воздуха - температура, измеренная на высоте 2 м над землей.
Td - Температура точки росы - температура, при понижении до которой содержащийся в воздухе водяной пар достигнет насыщения.
f - Относительная влажность воздуха - влажноcть воздуха, измеренная на высоте 2 м над землей.
Te - Эффективная температура - температура, которую ощущает одетый по сезону человек в тени. Характеристика душности погоды. При расчете учитывается влияние влажности воздуха и скорости ветра на теплоощущения человека.
Tes - Эффективная температура на солнце - температура, которую ощущает человек, с поправкой на солнечный нагрев. Характеристика знойности погоды. Зависит от высоты солнца над горизонтом, облачности и скорости ветра. Ночью, в пасмурную погоду, а также при ветре 12 м/с и более поправка равна нулю.
P - Атмосферное давление - приведенное к уровню моря атмосферное давление.
Po - Атмосферное давление - измеренное на уровне метеостанции атмосферное давление.
Tmin - Минимальная температура - минимум температуры воздуха на высоте 2 м над землей.
Tmax - Максимальная температура - максимум температуры воздуха на высоте 2 м над землей.
R - Количество осадков - Количество выпавших осадков за период времени, мм. При наведении курсора мыши на число - период времени, за который выпало указанное количество осадков.
R24 - Количество осадков - Количество выпавших осадков за 24 часа, мм.
S - Снежный покров - Высота снежного покрова, см. При наведении курсора мыши на число - состояние снежного покрова и степень покрытия местности в баллах.